Location: Gaast
(52.9002°N, 5.8891°E)
Time: 12:21:24
(UTC+00:00)

Cosmos 44 Rocket - Pass Details

Date: 18 November 2025
Orbit: 637 x 741 km, 65.1° (Epoch: 10 December)

Event Time Altitude Azimuth Distance (km) Brightness Sun altitude
Rises 16:37:47 0° 185° (S) 2,988 6.9 -9.0°
Reaches altitude 10° 16:40:19 10° 174° (S) 2,097 6.0 -9.4°
Maximum altitude 16:44:20 27° 116° (ESE) 1,294 4.3 -9.9°
Enters shadow 16:47:40 14° 65° (ENE) 1,916 4.9 -10.4°
